This is the latest recevied weather packets stored in our database for station/object S51UL-6. If no packets are shown the sender has not sent any weather packets the latest 10 day(s).
| Time | Temp. | Humidity | Pressure | Rain* | Wind** | Luminosity | Snow |
|---|---|---|---|---|---|---|---|
| 1788578738 | 14.44° C | 86% | 1015.1 hPa | 1.02 mm | - | - | - |
| 1788578438 | 14.44° C | 86% | 1015.2 hPa | 1.02 mm | - | - | - |
| 1788578138 | 14.44° C | 86% | 1015 hPa | 1.52 mm | - | - | - |
| 1788577838 | 15° C | 86% | 1015 hPa | 1.52 mm | - | - | - |
| 1788577539 | 15° C | 86% | 1014.9 hPa | 1.52 mm | - | - | - |
| 1788577238 | 15° C | 87% | 1015.1 hPa | 2.03 mm | - | - | - |
| 1788576938 | 15° C | 86% | 1014.9 hPa | 2.03 mm | - | - | - |
| 1788576638 | 15° C | 86% | 1015 hPa | 2.54 mm | - | - | - |
| 1788576338 | 15° C | 86% | 1014.8 hPa | 2.54 mm | - | - | - |
| 1788576038 | 15° C | 86% | 1015.1 hPa | 1.52 mm | - | - | - |
| 1788575740 | 15° C | 86% | 1015 hPa | 1.52 mm | - | - | - |
| 1788575438 | 15° C | 86% | 1015.1 hPa | 1.52 mm | - | - | - |
| 1788575138 | 15° C | 86% | 1015 hPa | 1.52 mm | - | - | - |
| 1788574840 | 15° C | 86% | 1015 hPa | 2.54 mm | - | - | - |
| 1788574538 | 15.56° C | 86% | 1014.9 hPa | 2.54 mm | - | - | - |
| 1788574240 | 15.56° C | 86% | 1015 hPa | 2.54 mm | - | - | - |
| 1788573938 | 15.56° C | 86% | 1014.9 hPa | 2.54 mm | - | - | - |
| 1788573638 | 15.56° C | 86% | 1014.9 hPa | 2.03 mm | - | - | - |
| 1788573338 | 15.56° C | 87% | 1015.1 hPa | 2.03 mm | - | - | - |
| 1788573039 | 15.56° C | 86% | 1015 hPa | 2.54 mm | - | - | - |
| 1788572739 | 15.56° C | 86% | 1015 hPa | 2.54 mm | - | - | - |
| 1788572140 | 15.56° C | 85% | 1015.1 hPa | 3.05 mm | - | - | - |
| 1788571840 | 15.56° C | 85% | 1015 hPa | 3.56 mm | - | - | - |
| 1788571539 | 15.56° C | 85% | 1014.9 hPa | 2.54 mm | - | - | - |
| 1788571239 | 15.56° C | 85% | 1015 hPa | 4.06 mm | - | - | - |
* Rain latest hour (hover to see other rain measurements)
** Current wind speed in m/s (hover to see current wind gust speed)